Retour au catalogue

COSMOS 1697

ActifNavigationLEO
NORAD 16181·PAYLOAD·🇷🇺 Russia

Lancé Oct 22, 1985 depuis Baikonur Cosmodrome

Loading…

Prochains Passages (prochaines 24 heures)

TLE

FraisSource: Space-Track

Époque: Sep 14, 2026, 04:44 UTC

1 16181U 85097A   26257.19769739  .00000316  00000-0  19211-3 0  9996
2 16181  70.9627 185.0407 0019032 243.0847 116.8330 14.13669045976258

Suivez COSMOS 1697 en temps réel avec AllMySat

Download on the App Store